Wind_Speed
6 4 3 1 1 3 1 1 1 1 1 0 2 1 3 1 2 2 5 4 2 2 1 1 3 4 2 2 2 3 3 1 2 1 1 4 5 8 8 6 8 12 13 12 11 11 13 15 14 12 13 13 13 13 12 12 12 13 14 14 14 14 14 14 13 13 13 14 16 16 16 18 18 17 16 18 19 19 18 19 20 20 20 20 19 19 19 18 18 18 18 17 17 17 18 19 20
5 3 1 2 1 3 0 1 2 1 1 1 2 0 3 2 2 4 5 3 1 4 2 2 4 2 2 2 2 2 2 3 5 3 3 4 6 7 6 6 10 14 13 12 12 11 11 14 15 13 12 13 13 13 13 12 12 13 13 13 13 13 14 13 13 13 13 13 14 15 16 17 17 16 16 17 19 19 19 19 20 20 20 20 20 19 19 19 19 19 18 17 17 18 19 19 19
4 2 3 1 1 0 1 1 2 0 2 1 2 3 3 4 5 4 3 2 5 6 4 4 3 1 2 3 2 1 1 3 2 3 4 6 7 7 6 6 11 14 13 12 11 12 12 13 15 14 12 12 13 13 12 11 11 12 13 13 13 13 13 14 13 13 13 13 13 15 16 17 16 15 15 16 18 19 19 20 20 20 20 20 20 20 20 20 20 19 18 18 18 19 19 19 20
4 2 4 3 1 1 1 0 1 1 1 1 1 5 4 5 5 5 5 6 7 5 4 4 3 1 4 3 0 1 2 3 3 3 4 6 6 7 6 8 12 13 13 12 12 13 12 14 15 14 12 12 12 12 11 10 10 12 13 13 13 13 13 13 13 13 13 13 13 14 15 16 15 15 15 15 18 19 19 20 20 20 20 20 20 20 20 20 20 19 18 18 18 19 19 19 20
3 1 2 4 2 1 1 1 0 2 1 1 1 5 5 4 6 7 8 7 5 2 1 2 2 3 2 2 2 1 3 4 4 2 4 6 5 6 7 11 12 12 13 13 12 13 14 16 16 14 13 13 13 12 11 9 9 13 14 14 13 14 13 13 13 12 13 12 13 14 14 15 15 15 15 15 17 18 19 20 20 20 20 20 20 21 21 21 20 19 19 19 19 19 19 19 19
4 5 5 3 1 1 1 1 1 0 3 2 1 5 6 5 7 10 9 5 3 2 1 3 1 1 2 1 2 2 2 3 5 4 4 6 5 6 9 12 11 12 13 13 12 12 14 16 15 14 13 13 13 12 11 9 9 13 15 14 14 14 13 13 12 12 12 12 12 13 14 14 15 14 14 15 16 18 19 20 20 20 20 21 21 21 21 21 20 19 19 19 18 18 18 18 18
1 1 4 4 3 1 1 0 0 1 2 2 3 4 6 6 7 10 10 6 4 2 2 2 2 2 2 1 2 1 1 0 3 5 5 6 7 8 10 11 10 12 12 13 13 11 14 16 15 14 13 12 12 12 11 10 10 13 16 15 13 13 13 13 12 12 11 11 11 12 13 14 14 14 14 14 16 17 19 21 20 20 20 21 21 21 21 20 20 19 19 18 18 18 17 17 18
1 0 1 0 2 1 0 1 1 1 2 1 2 1 3 6 8 9 10 5 3 3 3 3 3 3 2 0 1 3 2 1 2 5 8 7 7 9 11 11 12 13 12 13 13 12 14 14 15 14 13 12 12 12 11 10 10 12 14 14 13 13 12 12 11 11 11 11 11 11 12 13 14 14 14 14 15 16 18 21 20 20 20 21 21 21 20 19 18 18 18 18 17 17 17 18 18
3 2 1 1 1 1 0 0 1 0 0 1 2 1 1 4 5 7 9 5 1 2 3 4 4 2 3 4 1 4 3 3 4 6 8 7 7 8 12 12 13 14 13 13 13 13 14 14 15 15 14 12 12 12 12 12 11 11 13 13 13 12 12 11 11 11 11 11 11 11 12 13 14 13 13 14 14 15 17 20 20 20 20 20 20 20 19 17 17 17 17 17 16 16 17 17 17
2 2 1 1 1 1 1 1 1 1 1 1 2 2 3 5 4 4 7 5 2 3 3 3 2 2 3 5 2 3 4 6 6 6 7 7 6 8 11 12 13 15 14 13 14 13 14 15 15 15 15 13 13 13 13 13 12 12 12 12 11 12 11 11 11 11 11 10 10 11 12 13 13 13 13 13 14 15 16 18 20 20 20 20 19 18 18 17 17 17 16 16 16 16 16 16 17
0 2 0 1 2 2 2 2 2 1 1 1 2 3 4 6 5 4 4 2 2 3 4 3 3 3 4 2 2 3 5 8 7 6 7 7 7 8 10 11 12 14 14 13 13 14 13 15 15 15 15 14 14 13 14 13 13 13 13 12 11 11 11 11 11 11 10 10 10 11 12 12 12 12 12 13 14 15 16 17 18 20 20 20 20 19 19 18 18 17 16 16 15 15 15 16 17
1 2 1 3 2 2 1 1 2 1 1 2 4 5 3 6 6 5 6 3 4 4 5 6 2 3 5 2 2 4 6 8 7 7 8 9 8 9 11 12 12 12 13 12 12 14 13 14 16 15 15 15 14 14 14 14 13 13 14 13 12 11 11 11 10 10 10 10 10 11 11 12 11 12 12 13 14 16 17 17 18 19 19 20 20 19 18 18 18 17 16 15 15 15 15 16 17
0 2 3 3 0 1 0 1 1 0 2 4 4 5 4 8 6 5 6 3 5 6 5 5 2 1 3 2 2 3 6 9 9 8 10 11 8 9 14 15 13 11 11 12 11 12 13 14 16 15 14 15 15 14 14 14 13 13 14 13 12 11 11 10 10 10 10 10 10 10 11 12 12 12 12 13 14 16 17 17 17 18 19 19 19 18 18 18 17 17 17 18 18 18 18 18 19
0 1 1 2 1 0 1 0 2 3 3 4 4 5 5 5 2 1 3 5 6 4 1 3 2 2 3 2 3 3 7 12 11 10 11 12 9 11 15 16 15 13 12 13 12 13 12 13 14 13 14 15 15 14 14 14 14 13 13 13 12 12 11 11 11 10 10 11 11 10 11 12 12 12 12 13 14 15 16 16 16 17 18 18 18 18 18 18 17 18 19 19 20 20 20 20 20
0 1 1 2 2 1 2 1 1 4 3 6 4 5 6 1 1 2 3 5 2 3 2 2 2 2 1 3 3 3 9 15 14 12 13 12 11 12 13 15 16 15 14 13 14 14 13 13 14 12 13 14 13 13 14 14 14 14 14 14 13 12 12 11 11 11 11 11 11 11 12 13 12 12 13 13 14 15 15 16 16 16 17 17 17 17 17 17 18 18 19 19 20 21 21 21 20
0 2 1 2 2 2 3 1 1 3 2 6 3 3 6 3 0 3 1 3 0 3 2 3 3 2 2 1 3 5 11 18 15 14 14 12 12 13 13 14 15 15 15 15 15 14 14 14 14 13 13 13 13 13 13 14 15 15 15 15 14 13 12 13 12 11 11 11 11 12 12 13 13 12 13 13 13 14 15 16 17 17 17 17 17 17 18 18 18 18 19 19 19 20 21 21 21
1 1 2 2 3 3 4 5 4 2 1 5 4 5 8 5 2 2 1 2 2 3 3 2 3 2 2 2 3 4 13 18 16 14 14 12 12 13 13 13 14 15 16 17 16 15 15 15 15 15 13 12 14 14 12 13 16 16 16 16 15 14 14 14 13 12 12 11 11 12 12 13 13 13 13 13 13 13 13 15 16 17 17 18 18 19 19 19 19 19 19 19 19 20 21 22 22
2 2 3 3 3 3 5 7 5 0 1 6 7 7 8 5 5 3 2 4 3 2 4 3 3 4 2 3 2 7 15 17 16 15 14 14 14 12 12 14 14 14 16 19 19 16 16 16 15 15 13 13 14 14 12 12 16 17 17 17 16 15 15 14 13 13 13 12 13 13 11 12 13 13 14 13 13 13 13 14 15 16 17 18 20 20 20 20 20 20 20 20 20 20 22 23 22
1 1 3 4 3 2 2 5 5 0 1 5 7 5 5 4 5 5 5 5 4 6 6 5 6 7 7 5 5 10 14 15 14 16 16 16 17 16 15 15 15 15 15 17 19 18 17 16 15 14 15 15 15 14 13 12 15 17 16 17 17 16 16 14 14 14 13 13 13 12 11 11 12 13 14 14 14 14 13 13 14 16 17 18 20 21 21 21 21 21 21 21 21 21 22 23 23
0 1 5 2 2 1 1 4 4 0 2 4 8 3 3 2 3 5 5 4 4 9 8 6 8 10 10 9 9 11 14 15 14 16 18 17 16 17 17 17 17 17 16 15 18 19 18 18 17 17 17 17 17 15 16 16 15 15 14 15 17 17 17 16 15 15 14 14 14 12 11 12 13 13 14 15 14 15 14 14 14 16 17 18 20 22 22 22 22 22 22 22 22 22 23 23 22
1 1 3 2 1 1 2 3 1 1 3 2 6 5 4 3 2 4 4 5 6 10 9 9 9 7 9 11 12 14 15 16 16 18 19 19 18 17 17 17 16 16 17 18 20 20 18 18 18 18 17 16 17 16 16 19 17 16 15 15 18 18 18 17 15 16 15 15 14 12 12 13 13 16 16 15 14 15 16 16 16 17 19 19 20 22 23 23 23 23 23 23 23 23 23 23 22
2 0 2 3 0 1 3 0 0 0 2 2 5 5 4 4 3 5 6 8 6 2 3 7 6 1 7 11 13 14 15 17 18 20 20 21 21 19 17 16 16 18 21 22 22 21 20 19 18 17 16 15 16 15 15 18 18 18 17 17 19 19 20 19 16 17 15 14 15 14 14 14 14 17 16 15 14 14 17 18 19 19 20 21 21 22 23 22 22 22 21 21 21 22 22 22 21
1 1 1 1 1 2 3 1 0 1 2 4 4 2 3 4 5 3 7 13 3 5 3 1 2 3 4 9 14 14 15 17 20 22 22 22 23 22 21 19 19 21 24 25 23 24 23 22 20 18 17 17 17 16 16 16 18 20 20 20 22 22 22 21 19 18 15 15 18 17 16 15 15 17 16 16 15 14 17 19 20 21 21 22 21 22 22 21 20 20 20 21 21 21 21 20 19
1 3 3 2 1 2 2 1 1 1 3 1 1 1 3 6 5 2 6 16 6 3 2 2 2 2 3 8 13 14 15 18 20 21 20 20 21 21 20 19 20 22 25 26 26 26 26 25 24 22 20 21 19 18 17 16 18 18 17 20 23 22 22 21 21 19 15 16 20 20 17 16 16 16 15 17 17 15 18 21 21 21 21 21 22 22 23 22 20 19 20 23 23 22 20 17 16
0 4 4 2 1 1 2 1 2 1 2 0 1 3 2 2 1 2 10 14 6 2 2 1 1 3 6 8 11 13 14 16 17 17 17 17 16 17 19 20 21 25 26 25 27 27 27 28 27 26 24 23 22 20 17 15 19 18 14 18 21 21 21 22 22 20 17 16 20 22 20 18 18 17 15 17 19 17 19 21 21 22 21 20 22 23 22 22 22 20 22 23 23 22 20 18 17
2 4 4 3 2 2 2 2 2 1 1 1 5 4 1 0 1 7 12 7 1 0 2 3 2 4 7 7 10 12 12 15 15 15 15 15 16 18 22 24 25 28 27 24 28 29 29 30 28 28 27 26 26 25 20 15 18 20 17 17 19 20 22 23 22 21 21 18 19 22 21 18 18 19 17 17 20 20 21 22 22 23 22 22 23 23 21 22 23 23 23 23 22 22 21 20 18
3 4 4 4 3 2 1 2 2 1 1 1 5 3 1 1 2 7 4 3 3 2 4 3 4 7 8 6 7 9 10 13 13 12 12 13 16 19 20 25 28 29 28 26 28 29 29 29 28 27 27 26 27 28 26 20 17 19 19 19 19 20 21 21 22 23 24 23 22 22 21 17 16 19 19 19 21 22 23 24 24 24 25 25 25 23 20 21 24 25 23 23 22 21 22 21 20
3 3 4 5 3 3 2 0 1 1 2 1 3 3 1 3 5 8 1 4 2 2 5 4 6 7 6 6 5 6 9 10 10 11 14 16 17 19 20 26 30 28 28 28 27 28 28 27 26 26 26 26 26 27 29 27 21 18 17 20 21 21 22 22 23 24 25 26 25 24 23 18 14 18 23 23 22 24 26 26 26 25 26 26 25 24 22 23 25 25 24 24 23 22 23 23 21
2 1 2 3 1 2 2 1 2 3 1 1 2 5 6 8 12 8 4 2 2 1 5 5 7 7 5 5 5 6 8 8 10 12 16 16 15 18 20 25 30 28 27 27 27 27 27 25 25 24 25 26 26 27 29 30 26 20 17 21 25 24 25 25 25 26 26 26 26 25 25 22 17 17 23 25 24 26 28 28 28 27 27 26 25 24 23 25 25 25 25 25 24 24 24 24 22
2 1 1 1 3 2 2 2 1 2 1 1 2 5 6 10 14 4 6 2 2 4 8 6 6 5 5 5 5 7 8 9 12 14 16 15 13 16 19 21 28 28 25 26 27 27 26 25 25 24 24 24 25 26 28 29 25 21 21 24 27 26 26 27 26 27 27 26 24 25 26 26 23 19 21 25 25 27 29 30 30 29 29 29 28 26 25 26 25 25 26 25 25 25 25 25 24
2 1 0 0 3 2 3 2 1 3 2 0 3 6 5 6 6 3 5 1 2 8 10 8 7 5 5 5 6 7 8 11 14 15 15 17 17 19 20 21 26 28 26 27 28 26 25 25 25 23 24 23 23 24 26 27 22 21 24 27 26 23 24 27 27 28 28 26 24 25 28 29 26 22 21 23 24 26 30 32 33 32 32 31 29 28 28 28 26 26 26 25 25 26 25 25 24
2 1 2 1 3 1 3 2 0 1 1 1 5 5 7 7 1 5 3 1 3 8 9 7 8 7 7 6 6 7 7 10 13 15 16 18 22 23 24 23 25 28 28 28 27 26 25 24 24 23 23 22 19 18 19 22 23 24 26 27 25 23 23 24 27 29 28 26 23 24 29 30 26 23 22 22 23 25 30 33 33 33 34 33 31 31 29 28 28 28 27 25 26 28 26 25 24
1 2 2 2 3 2 1 2 1 2 0 4 7 4 4 4 1 4 2 2 2 6 8 8 8 8 7 6 6 7 7 8 11 15 17 20 24 26 26 26 26 27 28 28 27 27 25 23 24 22 21 19 16 16 17 20 23 24 26 27 26 26 25 23 25 27 24 24 23 23 27 27 25 23 22 22 23 25 30 32 30 30 32 33 33 34 31 29 29 28 28 27 28 29 27 26 25
2 1 2 1 2 2 1 2 2 1 2 5 7 7 10 8 3 3 4 4 2 7 9 10 8 6 7 6 6 7 7 8 10 13 16 21 26 27 27 27 26 26 27 27 27 26 24 23 23 21 19 16 14 17 20 21 23 23 24 27 26 27 28 26 25 24 23 24 24 24 26 26 24 23 22 22 23 25 28 30 28 27 30 31 33 34 31 31 30 28 28 28 28 28 28 27 26
3 3 3 1 2 4 3 1 1 1 3 6 7 9 14 15 11 12 7 5 5 10 11 11 10 9 8 7 8 9 7 10 11 9 11 17 22 25 27 27 27 27 27 26 26 24 23 22 21 20 18 15 15 18 21 22 23 24 24 26 26 26 25 25 24 24 24 25 25 27 27 27 25 22 22 22 23 25 26 27 26 26 29 31 32 32 32 32 31 29 29 29 29 30 29 28 27
3 3 2 1 3 4 3 1 1 1 4 7 10 12 14 15 12 14 10 5 6 11 11 10 10 9 9 9 9 9 9 12 10 6 8 13 17 22 25 27 28 28 28 27 26 25 24 23 21 21 20 18 19 20 22 23 23 24 24 24 24 24 23 23 24 24 25 25 26 27 27 26 24 22 22 22 23 25 26 27 26 27 30 31 33 34 33 32 30 30 30 30 30 30 29 28 27
4 3 1 1 3 3 2 1 2 1 5 7 7 11 15 14 12 14 12 6 8 12 13 12 11 10 10 10 11 10 11 11 7 6 9 11 15 19 22 25 27 27 28 28 28 27 26 24 23 23 22 22 22 23 24 25 26 26 26 25 25 24 24 24 24 23 22 23 25 26 26 25 23 23 24 23 24 26 28 28 27 30 32 31 34 35 32 32 31 31 31 31 31 31 31 29 29
3 2 2 2 4 4 1 2 1 1 3 5 3 9 16 15 13 13 11 10 12 13 14 14 13 12 11 11 13 12 10 8 7 8 9 11 14 18 20 24 27 28 29 30 28 26 24 24 24 24 24 25 24 24 26 27 27 29 28 28 28 27 27 26 24 23 22 22 24 25 25 24 22 24 25 25 26 28 29 28 29 32 33 32 34 33 31 33 34 34 33 32 32 31 31 31 32
2 1 2 3 3 3 1 2 2 1 3 5 3 7 14 16 15 15 14 14 15 14 14 14 13 13 13 12 12 11 10 9 10 10 9 11 14 17 20 22 26 28 27 27 26 23 23 24 25 23 24 27 26 26 27 27 27 28 28 28 28 27 28 28 26 24 24 24 25 25 25 23 23 24 26 26 28 30 29 28 30 33 35 36 36 33 33 36 36 35 34 34 32 31 31 33 33
3 2 3 3 0 1 2 1 2 2 3 5 6 7 12 15 14 15 15 13 12 12 12 12 12 14 16 14 11 10 12 12 12 10 9 10 13 16 19 21 24 24 22 23 24 23 23 25 25 23 25 28 29 28 28 28 28 28 27 26 26 26 26 28 27 26 26 26 27 27 25 24 25 25 26 27 29 30 29 28 30 33 35 37 35 34 36 37 36 36 35 35 35 32 31 34 33
3 4 5 4 2 2 2 2 1 3 2 2 7 8 8 9 9 11 8 4 6 8 8 10 12 13 13 13 12 12 13 13 12 11 8 9 12 15 18 20 21 21 22 24 26 26 25 24 25 25 28 30 30 29 29 29 29 29 28 25 24 24 24 26 27 27 28 29 30 29 26 25 25 25 26 26 26 27 28 29 29 31 33 34 33 33 37 38 37 37 36 35 36 35 33 34 33
3 5 9 9 4 1 1 2 2 3 2 1 3 6 4 2 5 10 5 3 7 5 6 11 12 11 10 11 12 11 12 12 11 11 8 8 11 14 16 18 20 21 23 25 26 25 24 23 24 25 28 31 30 30 31 31 30 31 30 28 26 26 26 27 29 30 30 30 29 27 25 25 25 26 27 25 23 24 28 30 29 30 32 32 32 34 37 38 38 38 37 36 37 38 36 34 31
2 2 5 7 2 1 1 1 2 4 2 1 1 5 6 4 9 14 9 10 13 7 8 13 12 10 10 10 10 9 9 9 8 9 9 9 11 12 14 18 20 21 22 22 23 23 22 22 23 25 28 31 31 32 33 33 32 32 32 30 30 30 29 29 29 29 30 29 28 26 25 26 27 29 29 25 22 24 28 28 28 30 31 31 33 36 38 39 39 38 37 36 37 39 37 35 32
1 1 1 4 4 4 3 2 3 3 3 2 3 3 6 7 9 10 8 10 14 12 12 13 10 10 11 10 10 9 9 7 6 7 8 9 11 12 14 16 19 20 19 20 22 23 23 21 22 26 28 30 32 33 33 34 33 33 32 31 30 31 31 30 29 28 29 29 28 27 27 28 31 32 30 25 24 25 27 27 28 31 31 32 35 37 38 38 38 39 38 38 39 40 38 35 34
1 1 1 3 3 3 3 2 2 1 4 4 4 4 5 8 5 2 1 6 10 13 14 11 8 7 7 8 8 7 6 5 5 6 6 7 9 11 12 13 17 19 18 19 22 23 23 21 22 24 26 29 32 32 33 34 33 33 32 30 30 30 28 27 28 29 29 29 29 29 29 30 32 32 29 27 26 26 27 27 29 32 32 32 35 36 37 37 38 39 39 40 41 41 38 35 36
3 5 5 6 5 4 3 0 1 1 5 5 6 8 5 9 5 6 3 4 8 11 10 6 5 4 4 4 4 4 3 3 3 4 5 5 6 7 9 11 13 16 17 19 20 21 22 21 21 22 23 28 32 32 32 34 33 33 33 31 30 29 26 25 26 28 29 29 30 31 31 31 31 31 29 27 27 27 28 28 30 32 31 31 33 35 36 37 38 38 39 41 42 40 38 35 34
7 7 5 7 5 3 2 1 1 1 6 3 8 10 5 8 5 7 5 2 4 7 7 4 3 2 2 1 1 2 1 1 1 2 3 3 3 4 7 10 12 14 16 17 19 20 21 21 21 22 22 26 31 32 32 34 34 33 33 32 30 28 27 26 26 27 29 30 31 31 31 30 29 30 30 28 28 28 29 29 30 31 30 31 33 34 34 36 37 39 40 41 41 40 37 34 33
4 4 4 4 2 1 2 1 1 4 6 1 3 4 5 8 6 4 2 2 3 5 7 8 5 3 1 1 0 2 1 1 1 1 2 2 3 4 6 9 11 14 16 18 19 19 20 20 21 22 22 24 30 33 33 34 35 34 33 31 30 28 28 28 28 30 31 31 32 32 31 30 29 29 30 30 30 29 29 30 31 30 31 32 32 32 33 36 38 39 40 40 40 39 35 32 32
2 3 6 5 3 2 3 3 3 5 4 2 3 1 4 11 11 6 9 12 12 9 9 11 9 7 5 2 2 2 2 2 2 2 2 2 3 5 7 10 12 14 16 18 19 19 20 21 22 23 23 24 28 33 34 34 35 35 34 32 30 29 29 30 31 31 32 33 34 33 31 31 30 30 30 31 30 29 30 30 30 30 31 31 31 32 33 36 38 39 40 40 39 37 34 31 31
6 7 7 6 5 4 5 3 1 4 2 2 2 1 4 10 10 9 14 16 13 8 9 10 9 10 8 3 3 4 4 5 4 4 4 4 4 6 8 10 11 13 15 18 19 20 21 22 23 24 24 24 26 32 35 34 35 35 34 33 32 31 30 31 32 32 33 34 35 34 34 33 32 31 31 32 30 29 30 29 29 30 30 30 31 32 33 35 38 39 40 39 37 36 33 30 29
7 4 3 5 6 5 5 3 2 3 1 2 1 2 6 6 2 3 8 10 8 6 6 6 7 10 8 5 7 8 8 7 5 5 6 6 6 7 8 8 10 11 14 17 19 20 21 22 24 24 24 24 25 30 33 33 34 35 34 34 34 33 32 32 33 33 33 34 33 34 35 35 34 32 32 32 30 30 30 30 30 31 30 30 31 32 33 35 37 38 38 37 35 34 31 29 27
3 1 1 5 4 2 1 1 1 1 1 2 3 4 6 5 6 8 8 9 6 4 4 5 8 9 5 7 9 7 7 7 4 5 7 6 7 7 7 8 9 11 13 16 18 19 20 20 22 23 23 24 25 29 33 33 34 35 35 35 35 34 33 32 33 33 32 31 32 34 35 35 34 34 33 32 31 31 31 31 32 31 31 31 31 32 33 35 37 37 37 35 33 32 29 27 25
4 3 5 3 1 2 2 1 2 2 4 4 4 6 7 6 10 10 11 13 9 4 5 6 8 6 4 8 7 3 4 6 5 6 5 5 6 8 9 10 11 13 14 17 17 18 20 19 20 22 22 23 24 27 32 33 32 35 36 36 35 35 34 33 33 33 31 30 32 34 34 34 35 34 34 33 32 32 33 33 33 32 32 32 32 32 34 35 36 35 34 33 31 29 26 24 23
4 5 5 2 2 1 2 4 1 3 6 4 4 8 8 6 6 3 3 9 10 9 10 9 8 6 6 9 5 2 4 6 6 6 4 4 6 8 11 11 13 15 16 17 18 18 19 19 20 22 23 25 26 26 31 33 32 34 35 35 35 35 35 34 34 33 32 32 33 34 34 34 34 34 34 33 33 33 34 34 33 33 33 32 32 32 33 33 33 33 32 30 28 26 25 23 22
1 1 2 2 2 4 4 4 4 5 6 3 4 7 6 8 8 4 4 8 9 11 11 10 11 10 9 9 5 4 5 5 5 5 4 4 6 9 11 11 12 14 15 16 17 17 18 20 20 23 24 25 26 26 29 31 32 34 35 34 35 35 35 35 35 34 33 33 33 34 34 34 34 34 34 34 34 34 35 35 35 34 34 33 32 32 32 32 32 31 30 28 26 25 24 23 22
2 1 1 0 3 3 3 3 2 5 6 4 4 4 5 8 7 6 11 12 11 10 9 8 10 10 9 8 5 4 5 5 4 3 3 4 6 8 9 10 11 13 14 15 16 17 19 21 21 22 23 23 25 25 25 28 32 34 34 33 34 35 36 35 35 34 33 33 34 35 34 33 34 36 36 36 36 36 36 37 36 36 35 34 33 32 32 31 30 29 28 26 25 24 23 22 21
5 6 6 4 2 0 2 2 1 2 4 4 4 5 8 6 4 7 11 11 10 11 8 7 7 8 7 6 4 3 4 5 3 2 2 3 4 7 8 9 11 13 14 15 16 17 19 20 21 22 22 23 24 24 25 29 32 33 34 34 35 36 36 35 34 34 34 34 35 35 33 33 35 37 37 37 37 37 38 38 38 37 36 35 34 33 32 31 30 28 26 25 24 23 23 22 21
7 8 9 10 8 5 4 5 2 1 3 2 2 6 9 5 3 6 9 7 7 8 7 7 7 7 4 2 3 4 4 4 2 2 2 1 3 6 9 11 12 14 15 16 17 17 18 19 20 21 22 23 23 24 28 33 34 34 35 36 36 37 36 35 34 33 34 34 34 33 32 32 34 36 36 36 36 37 38 38 38 38 36 35 34 33 32 30 29 27 25 24 23 23 23 22 21
Wind_Direction
320 316 305 300 186 211 290 310 235 80 290 46 111 161 141 117 347 205 164 154 177 149 152 50 143 137 119 11 32 50 26 307 7 331 59 71 126 136 146 157 161 158 154 155 152 152 151 148 144 142 141 142 139 136 134 133 133 127 122 120 116 112 108 105 104 101 98 97 95 88 81 77 72 70 69 70 74 75 76 80 83 85 86 88 91 92 94 95 96 95 93 91 88 84 80 79 78
321 311 255 101 84 239 191 309 282 97 264 136 137 113 109 149 221 185 158 164 87 94 123 128 140 116 41 19 44 132 95 32 21 32 66 99 132 138 148 152 162 159 155 157 154 154 154 152 150 146 144 143 142 139 135 133 138 135 128 124 119 114 114 112 109 107 104 101 96 89 84 78 73 71 70 73 77 77 78 80 82 85 87 89 91 93 94 96 97 96 94 92 89 86 82 81 80
323 298 201 143 44 225 118 244 283 119 268 83 130 120 125 178 179 149 113 93 87 104 126 124 145 112 278 221 195 248 99 84 89 89 100 135 142 148 153 143 156 158 157 158 157 159 156 157 154 148 145 144 143 140 137 136 140 142 136 127 124 124 119 114 112 110 107 103 97 91 85 80 74 72 69 73 79 79 80 82 83 85 87 90 92 93 96 97 97 95 93 91 89 85 83 82 81
321 271 218 251 239 153 135 215 354 280 267 37 117 132 164 180 145 111 100 106 106 123 131 145 166 63 290 258 80 305 102 109 135 122 131 151 142 141 157 148 151 160 162 160 161 161 158 158 156 149 146 146 146 141 139 138 143 151 145 137 136 131 120 114 114 112 109 105 98 92 88 83 76 74 71 72 81 82 81 84 85 86 87 89 91 94 96 98 97 94 92 90 88 86 84 83 82
9 63 212 257 248 73 59 103 124 266 16 19 70 134 174 164 132 122 125 130 131 154 111 194 185 73 292 303 348 274 108 108 137 161 133 138 140 145 165 155 153 165 164 162 163 163 161 161 158 151 149 151 150 144 141 140 146 156 151 145 140 129 122 118 116 113 110 106 99 94 90 84 78 76 74 73 82 84 85 87 86 88 88 89 92 95 97 97 95 94 94 93 92 91 90 89 85
75 76 76 71 95 53 188 163 175 206 34 351 36 128 162 151 139 136 142 155 170 255 294 248 253 136 187 122 298 323 65 114 137 160 141 139 160 168 168 159 160 168 165 167 164 164 165 164 162 154 153 155 153 147 143 142 145 154 152 146 137 127 126 123 117 115 111 105 99 96 92 86 80 78 77 76 83 85 87 89 89 89 90 92 94 96 97 97 95 94 95 95 95 95 95 92 87
185 98 66 80 110 299 234 134 210 121 64 350 14 111 151 147 142 143 156 176 189 225 225 240 260 205 154 116 206 118 28 96 119 155 163 155 161 168 169 164 167 170 170 172 166 167 169 166 164 158 158 157 154 152 147 146 142 148 150 143 133 127 127 124 120 117 112 108 103 99 94 87 82 82 80 80 85 87 89 91 91 91 93 95 97 98 98 97 97 99 99 98 98 97 96 92 89
319 348 312 266 119 4 262 115 68 54 65 314 325 50 138 144 153 158 166 183 179 181 195 191 227 239 116 160 199 127 181 202 155 170 169 161 157 161 163 164 168 174 176 174 172 170 171 169 166 163 163 160 158 157 153 153 147 147 149 142 134 130 129 128 125 122 117 114 110 104 97 90 85 85 84 83 87 90 93 94 93 93 95 96 99 100 99 97 100 103 102 101 100 98 95 92 91
30 23 229 227 151 78 143 158 112 61 90 217 250 236 201 152 169 175 174 187 173 176 186 161 212 278 128 177 105 116 185 191 184 176 169 164 158 162 160 165 170 175 177 174 176 174 175 174 171 170 168 167 167 164 160 160 157 152 151 146 140 138 136 135 131 127 123 119 115 109 102 94 89 87 86 85 87 91 97 99 98 97 97 98 100 100 97 95 99 101 101 102 103 100 97 96 94
32 18 189 140 195 195 178 200 140 128 154 223 257 191 184 170 181 191 185 188 166 177 154 119 226 277 149 172 121 123 170 173 182 174 170 165 160 168 163 170 174 175 177 175 178 179 179 180 178 176 172 173 173 170 168 167 165 161 156 153 150 146 144 142 136 130 127 123 120 116 107 99 92 89 87 87 89 92 98 102 103 101 99 99 100 101 98 96 99 104 106 107 107 104 101 99 96
140 60 340 176 197 215 215 199 160 137 135 255 233 180 178 174 178 182 199 194 161 177 144 162 213 181 179 188 123 113 150 169 176 170 171 167 162 168 168 174 176 178 181 178 181 181 179 184 186 183 178 179 179 176 175 173 171 169 164 161 160 156 150 146 141 135 131 128 126 120 112 105 97 94 93 92 93 96 99 101 104 104 103 102 101 100 100 99 103 109 111 110 110 107 103 101 99
195 121 212 203 203 236 268 211 167 139 166 221 178 159 169 176 182 184 198 198 169 190 180 189 203 150 183 192 129 111 151 174 169 173 169 161 165 168 172 176 176 179 186 186 184 183 183 187 188 187 186 184 182 179 179 178 176 176 171 166 167 165 158 152 148 143 137 135 132 125 117 113 106 103 103 100 99 100 102 102 103 104 102 102 102 100 101 101 105 110 111 109 106 104 103 103 103
344 146 201 195 335 328 147 216 147 118 219 205 158 138 165 179 195 201 186 184 175 189 186 174 160 221 208 127 114 137 167 174 165 175 167 162 175 173 170 177 181 179 181 185 184 184 185 188 187 187 191 190 186 183 183 182 180 181 175 171 172 169 166 160 155 149 144 141 137 132 126 122 117 112 110 107 105 105 105 105 105 106 105 104 104 103 105 106 107 107 105 103 102 102 103 105 107
14 138 225 164 67 235 163 49 158 216 209 155 126 133 175 194 213 239 189 207 191 175 122 136 172 226 212 144 164 182 171 170 168 174 168 165 175 175 172 176 186 190 186 185 185 185 185 189 190 189 192 193 193 190 189 188 186 186 180 177 177 176 172 167 162 156 152 149 144 142 135 130 125 118 117 115 111 109 107 107 107 108 110 110 110 109 110 109 107 105 103 102 101 102 103 106 109
114 133 51 127 136 181 189 292 178 228 203 142 141 146 176 216 22 210 223 235 182 91 80 151 231 250 207 193 164 137 159 166 168 171 169 167 170 176 177 179 187 196 199 199 196 194 192 192 194 194 193 193 197 195 193 193 190 188 185 181 182 182 177 174 171 165 161 157 152 148 143 137 130 122 121 120 116 113 111 110 109 109 110 111 112 111 110 107 105 105 104 104 103 103 104 107 110
62 136 104 147 166 198 191 204 166 229 198 140 133 154 178 152 149 220 257 301 86 111 205 181 194 279 332 357 68 84 149 163 164 168 171 168 169 174 177 184 192 197 203 207 202 200 201 198 194 199 197 191 196 197 194 195 193 191 190 188 186 184 183 182 178 174 169 164 157 154 149 143 135 126 124 123 121 118 117 116 112 110 110 110 110 108 106 104 104 105 105 104 105 106 106 108 110
275 195 186 189 185 201 181 177 178 200 161 144 147 180 189 158 169 240 58 275 240 143 219 200 161 255 332 68 70 114 155 162 160 165 169 169 171 174 177 187 197 199 201 203 200 199 205 208 201 202 203 195 199 199 195 196 194 193 193 194 190 186 188 188 183 180 173 168 163 159 153 147 139 132 130 130 128 125 123 120 115 113 111 110 108 106 105 105 105 105 105 106 106 107 108 109 110
240 195 201 212 182 183 178 183 184 69 172 168 169 190 200 178 163 168 173 208 214 200 215 211 209 222 187 105 126 155 161 163 164 170 174 177 180 178 180 188 194 195 194 195 199 199 197 201 196 195 203 205 202 197 197 200 197 197 198 195 192 191 192 190 187 184 178 174 169 165 160 153 146 139 138 138 137 133 129 124 118 115 113 111 109 107 107 106 106 106 107 108 109 110 111 111 111
225 142 218 220 170 150 175 183 170 289 300 157 159 190 211 194 157 161 208 199 180 226 220 202 228 215 178 155 156 156 165 170 173 182 186 187 190 188 185 190 192 191 192 193 199 201 198 197 193 193 201 207 207 205 208 207 201 203 203 197 194 194 194 193 190 187 184 180 176 173 169 161 154 148 147 149 148 142 135 132 125 119 117 115 113 110 110 108 107 106 106 108 109 109 111 112 114
138 194 229 209 133 128 158 189 164 312 317 161 155 164 216 195 143 162 216 216 190 230 227 200 226 220 185 162 158 160 170 180 184 191 196 198 198 196 193 194 196 195 194 192 197 203 207 208 205 205 206 210 216 220 215 206 204 204 201 200 200 197 194 196 193 191 191 187 184 180 177 170 158 155 158 157 152 146 142 137 131 126 123 120 117 114 112 110 108 107 107 106 106 107 109 111 113
138 234 252 65 90 149 128 196 155 17 315 187 144 146 199 162 152 193 206 224 224 234 232 226 237 220 170 159 162 168 174 185 192 198 202 203 204 204 201 198 198 199 200 198 201 204 207 207 205 206 208 212 218 222 211 199 201 204 201 205 207 201 197 199 196 196 196 191 190 184 183 180 166 162 163 161 153 149 148 143 138 134 130 127 123 119 117 114 111 110 107 104 104 105 107 109 111
127 38 341 53 270 83 85 276 36 344 308 168 150 164 177 128 188 217 210 229 236 235 225 232 249 129 143 164 166 170 179 188 195 201 205 204 204 205 204 203 200 201 205 203 204 206 207 205 204 206 212 219 222 220 207 197 200 208 211 211 210 209 205 206 204 201 197 192 194 190 186 185 178 171 167 167 163 158 156 149 147 144 140 135 130 127 124 120 119 116 112 108 106 105 104 105 106
189 122 93 106 9 36 65 9 75 221 230 178 170 163 136 159 213 213 223 236 236 65 59 36 33 70 132 164 166 175 184 190 197 203 203 202 202 202 203 206 205 204 205 204 206 211 212 213 214 218 222 228 228 216 205 204 208 213 217 212 212 215 207 206 212 210 198 193 198 194 188 189 185 179 177 178 173 168 168 161 155 152 147 142 139 137 132 128 127 125 122 118 116 112 106 103 102
246 129 140 148 55 8 31 14 148 219 247 197 62 162 162 201 221 75 234 241 233 104 88 43 51 106 157 170 177 189 192 194 202 205 203 203 202 201 201 203 205 206 206 207 210 214 217 220 222 225 228 229 226 214 209 212 214 215 213 205 208 216 210 205 209 212 205 196 202 199 193 194 189 184 186 187 183 178 177 171 163 157 153 151 148 145 140 136 135 134 130 125 122 117 111 109 109
90 127 144 146 98 30 65 125 159 202 260 352 207 201 184 226 262 304 247 244 236 172 144 159 142 151 183 194 194 197 199 202 205 206 205 206 204 201 203 204 203 204 206 209 211 213 217 220 224 228 231 229 222 218 219 218 217 216 207 198 203 214 219 215 209 210 211 202 204 205 199 197 194 191 189 191 192 185 182 180 172 163 159 160 155 149 146 142 141 141 135 130 124 118 114 114 116
65 110 132 129 101 73 108 154 138 201 225 163 215 199 126 352 324 267 250 251 314 198 210 196 200 208 206 202 204 203 206 209 206 205 205 206 208 208 211 212 210 209 209 212 214 216 219 222 226 229 230 229 223 222 225 224 221 220 215 207 209 216 220 218 211 211 215 206 203 206 201 196 195 195 191 192 194 188 186 185 179 172 165 165 163 156 154 150 147 144 139 133 128 123 120 117 117
73 97 105 89 81 80 115 170 116 219 172 187 236 212 121 128 256 252 241 28 15 246 219 199 217 231 222 210 212 212 215 215 208 204 202 203 208 211 213 214 215 214 213 215 218 220 223 226 228 228 228 227 224 222 225 225 222 224 225 221 218 222 220 213 211 218 220 212 206 205 200 196 194 197 197 195 195 192 192 189 184 181 172 169 168 163 160 156 149 145 141 138 134 130 126 123 122
66 116 124 76 67 93 43 208 80 309 162 177 269 257 236 122 230 244 100 50 3 247 231 220 232 239 230 220 221 220 225 221 207 204 206 205 207 208 209 212 214 213 213 215 217 219 223 225 225 226 226 226 226 223 224 224 222 224 229 228 225 227 227 221 219 225 226 217 213 208 201 197 194 197 204 203 200 198 199 195 189 187 182 175 171 167 164 159 153 149 148 144 140 137 131 129 126
80 121 151 88 116 144 54 19 1 311 178 80 297 262 239 200 227 236 88 51 25 323 255 239 239 244 239 229 228 228 227 219 210 214 217 214 211 208 209 213 213 212 213 214 216 219 220 222 222 224 225 226 227 225 224 225 226 227 227 229 229 229 229 225 226 231 228 218 216 214 207 205 199 195 203 207 206 203 201 199 195 191 186 180 176 173 168 163 160 155 152 148 144 140 136 133 129
125 64 339 113 211 192 83 48 339 265 174 12 266 261 239 209 227 219 76 20 323 277 257 247 244 244 246 237 237 237 224 219 219 222 221 217 214 213 212 215 216 213 212 214 216 218 218 221 223 226 229 231 231 230 227 225 225 227 226 226 226 229 229 225 228 231 224 218 222 220 213 213 209 199 200 204 208 208 204 201 199 194 187 182 179 177 173 168 164 159 155 151 145 142 139 135 130
109 98 287 165 234 171 92 69 285 221 165 25 240 255 262 230 221 110 63 353 250 263 257 250 249 246 251 244 245 249 232 222 226 227 223 221 221 220 217 217 218 216 214 216 217 217 219 223 226 230 235 237 237 234 226 221 220 222 222 220 220 225 226 225 227 224 217 218 222 220 217 215 210 205 204 204 206 210 208 201 196 193 188 185 182 178 175 170 166 162 159 155 148 144 142 138 132
61 217 184 130 241 193 89 80 326 250 106 200 225 248 269 270 269 82 56 117 186 255 261 257 255 252 255 252 249 254 247 232 230 231 226 225 227 226 222 219 220 218 216 219 218 219 221 225 229 232 237 238 234 228 219 214 216 220 217 215 220 224 223 226 225 217 216 219 219 221 219 212 205 208 212 210 209 211 209 202 194 189 185 184 182 179 176 173 171 167 162 160 153 147 146 142 136
86 255 205 153 220 246 107 109 57 320 19 217 231 260 278 275 39 92 112 144 175 264 271 266 256 253 253 253 251 251 254 243 235 232 224 224 229 229 226 222 222 221 218 219 219 219 220 224 229 231 235 232 222 215 211 209 213 217 215 214 220 222 222 228 221 212 216 222 221 220 215 209 208 213 217 216 217 215 210 204 197 189 184 183 180 177 177 177 176 172 164 161 156 151 149 143 138
179 210 239 197 219 248 252 144 99 316 259 230 229 247 259 261 266 240 191 159 225 270 274 273 265 257 251 248 252 250 251 248 243 232 220 225 230 229 228 225 223 222 220 219 219 220 220 223 228 229 226 217 211 211 208 208 209 212 214 217 219 217 220 225 219 214 221 225 224 218 214 216 219 221 220 218 219 216 209 203 197 192 187 185 181 177 177 177 176 174 169 162 157 155 152 145 141
177 186 216 204 217 231 266 263 113 208 242 238 234 240 255 259 263 265 247 179 233 264 267 271 270 266 261 253 252 249 246 249 249 228 213 226 230 228 227 224 222 220 219 217 216 218 218 221 224 223 217 207 208 210 205 205 209 211 213 215 215 211 214 221 222 224 228 228 225 222 220 221 221 222 221 216 213 209 202 199 196 191 187 184 183 180 177 175 174 176 174 166 159 156 154 150 146
126 154 198 198 233 232 241 264 55 298 251 247 246 252 262 263 260 267 264 199 225 262 264 264 263 263 261 254 251 248 245 249 247 229 224 229 228 228 226 222 221 218 217 215 214 216 217 218 218 216 215 208 207 206 203 204 206 209 208 206 206 205 209 218 223 227 229 228 223 220 217 215 215 217 214 209 207 201 194 194 194 190 187 185 184 182 179 178 179 179 174 168 162 154 151 150 149
101 119 164 206 253 262 201 135 50 16 264 257 250 266 273 272 267 265 266 246 241 254 256 257 254 253 253 250 251 247 245 249 252 250 244 232 227 228 225 221 218 215 215 213 211 213 213 214 213 212 213 207 205 203 201 201 202 203 203 203 206 208 211 215 217 220 220 216 211 209 208 208 210 207 204 206 204 196 192 194 192 189 189 189 187 185 182 182 183 181 174 167 164 156 148 149 152
106 163 226 229 242 258 137 80 23 102 261 268 271 286 279 275 274 268 265 258 255 251 248 252 253 253 252 249 251 250 250 256 257 248 227 217 222 222 220 218 214 212 212 210 209 208 207 210 211 210 210 205 204 204 201 201 203 204 204 208 212 212 211 210 210 209 208 207 206 206 204 202 204 204 205 209 204 198 198 197 193 191 190 188 186 185 184 184 183 181 175 165 162 160 155 154 155
137 163 238 253 250 263 162 76 28 141 242 277 316 297 282 280 277 270 260 253 255 252 247 253 258 258 256 251 251 250 255 258 251 240 211 203 214 215 215 214 213 212 210 207 205 201 200 207 208 204 206 204 202 204 202 202 204 205 207 209 210 208 207 209 210 209 208 210 208 205 203 199 203 208 210 211 206 203 203 201 197 194 190 186 185 184 182 183 181 179 177 170 162 160 159 160 162
197 186 218 247 338 274 251 83 75 169 237 296 314 296 281 280 275 266 256 247 256 259 254 257 256 256 258 259 262 259 257 257 253 244 211 193 202 207 210 211 211 209 205 203 200 197 199 205 203 199 204 205 201 202 203 204 205 204 206 207 207 205 207 211 212 213 212 210 206 203 205 204 205 211 212 209 206 204 204 203 198 194 190 188 189 188 184 184 183 178 177 176 170 163 161 166 170
209 216 225 238 230 225 260 9 3 222 204 282 297 288 271 263 265 268 262 244 263 260 256 258 249 247 255 261 264 258 253 253 256 254 223 190 198 205 209 210 208 204 203 202 199 199 200 201 200 200 205 206 202 202 203 205 205 203 203 202 202 204 205 206 207 209 210 207 203 203 206 207 206 207 205 201 200 201 202 199 194 192 191 191 193 192 189 188 186 182 182 183 181 175 170 172 177
219 220 223 238 254 210 225 356 322 263 224 158 302 286 264 224 262 266 265 273 263 224 223 253 251 244 243 249 254 248 245 244 247 255 245 211 205 205 206 206 205 206 207 205 202 202 201 198 198 200 204 206 205 204 204 206 205 203 201 197 196 196 196 199 202 205 206 203 201 202 204 205 204 200 194 191 194 198 200 196 193 193 193 196 197 195 192 189 186 186 189 190 188 185 177 175 183
224 218 224 233 247 92 205 265 283 279 286 150 245 276 277 289 273 266 262 272 273 255 240 253 253 249 242 242 248 244 244 240 235 244 245 231 216 205 205 204 204 209 209 205 202 202 200 197 197 200 204 206 206 206 206 206 206 206 205 203 203 200 198 200 202 204 203 201 200 201 202 202 201 195 189 192 198 200 201 201 203 201 199 201 199 194 192 191 190 191 194 195 192 189 183 179 185
192 58 189 187 180 200 207 204 239 286 326 253 187 237 277 276 266 267 263 265 275 275 263 255 246 245 244 244 247 246 248 244 235 238 236 231 223 212 208 207 208 211 206 201 201 201 201 198 198 203 205 206 208 208 208 208 208 208 207 207 209 207 205 204 202 202 202 202 202 203 203 202 198 193 193 199 202 201 204 207 210 207 204 204 200 197 198 197 196 196 196 196 193 192 191 187 188
8 83 106 133 148 168 157 179 229 329 321 267 173 166 267 270 233 199 255 256 270 272 267 264 258 248 242 245 250 250 252 250 244 247 242 231 225 219 213 208 209 209 202 200 203 203 201 199 200 203 204 206 208 209 210 209 210 211 208 205 206 206 205 204 201 201 203 205 206 204 203 201 198 197 201 205 204 204 206 209 212 210 206 206 204 203 203 202 201 200 198 196 195 196 195 195 196
132 139 101 91 86 75 95 199 176 100 283 261 165 170 257 286 231 161 157 239 254 264 267 271 281 278 254 245 256 258 259 258 251 253 254 244 231 219 209 205 204 203 200 200 202 201 200 199 199 198 200 206 209 210 212 211 210 211 209 205 203 202 202 203 203 202 203 205 206 203 202 202 202 203 205 207 208 207 207 210 211 208 207 210 210 207 206 205 204 202 200 198 198 199 198 202 204
144 146 105 94 86 64 79 36 64 238 266 223 157 178 226 294 262 161 158 203 230 257 275 270 252 267 262 256 277 264 250 255 250 251 252 243 235 214 200 199 198 197 198 197 196 197 196 197 198 197 198 206 210 211 212 212 210 208 208 206 203 203 205 206 206 205 204 204 203 202 202 203 206 208 208 207 209 209 209 210 208 207 210 213 212 209 208 206 204 201 200 200 201 202 203 207 208
155 151 133 129 121 128 137 106 141 233 252 117 115 185 214 255 251 135 105 314 268 257 277 276 265 253 224 119 241 245 220 267 273 266 254 224 212 201 194 197 193 192 193 193 194 195 197 199 198 197 199 206 211 212 212 213 211 208 208 208 208 211 213 214 213 212 209 206 203 202 202 203 206 209 210 208 208 208 209 208 206 209 213 213 211 210 209 206 204 202 200 201 203 205 207 210 209
222 159 163 188 199 197 221 204 178 232 240 57 6 290 222 245 259 290 294 280 262 242 243 259 270 272 257 190 191 219 211 243 258 258 246 220 212 201 197 197 191 191 193 192 192 194 200 204 201 199 203 207 211 212 212 213 213 212 212 211 213 216 219 220 219 218 215 210 205 204 204 204 206 206 208 210 209 208 208 207 208 211 212 211 211 211 209 207 204 203 202 203 205 207 210 212 213
198 178 176 195 192 208 228 198 200 265 238 49 337 230 242 264 275 280 270 269 272 259 245 249 257 266 263 229 218 240 240 237 239 249 244 223 214 207 203 200 193 194 193 190 191 194 199 204 204 202 204 207 209 212 213 213 212 214 216 216 216 219 221 221 222 222 218 212 209 209 207 206 206 206 207 210 210 210 209 209 211 212 211 212 212 211 209 207 205 204 204 205 207 209 212 214 215
197 188 179 205 197 210 228 200 218 251 118 78 323 215 228 246 314 295 259 274 292 282 269 270 264 263 269 269 250 243 248 247 232 239 244 231 218 211 207 202 197 195 192 190 192 195 199 203 203 201 203 206 208 209 211 212 211 214 217 219 220 222 224 225 225 224 219 214 215 215 211 209 208 208 209 210 211 211 210 210 210 210 211 212 211 210 208 206 205 205 205 206 209 211 213 214 215
194 77 189 231 221 193 238 313 156 79 52 185 204 244 240 248 304 290 266 277 282 258 266 272 264 263 271 273 256 228 239 251 232 232 237 225 215 210 205 201 198 196 194 195 195 197 201 202 200 201 203 207 208 208 210 211 212 215 219 220 221 223 224 225 224 221 218 219 221 219 215 214 214 212 210 209 209 209 209 209 208 209 211 211 209 208 207 206 205 205 206 208 210 212 213 212 212
160 172 201 225 327 105 156 233 84 87 266 236 189 244 264 282 288 266 246 256 260 261 267 254 258 266 258 262 257 201 227 242 230 233 229 208 202 203 204 200 197 197 196 198 199 200 202 200 198 201 203 208 210 208 210 212 212 215 219 220 221 221 222 223 222 221 221 224 225 221 217 217 217 214 210 209 209 207 206 206 207 208 210 209 208 208 207 206 205 205 207 208 209 209 207 204 204
142 188 193 139 22 15 199 235 181 183 247 248 192 235 255 264 273 269 232 251 254 259 263 258 260 259 246 255 254 191 220 232 236 238 225 204 199 198 202 201 200 200 198 199 200 200 202 201 200 201 203 209 211 208 209 212 213 214 217 219 219 220 221 223 223 223 225 226 226 223 219 219 218 214 211 209 207 205 204 204 206 207 208 207 207 207 206 205 204 204 205 205 204 201 199 197 197
66 236 179 119 224 210 185 215 223 216 233 242 220 238 249 238 244 264 254 244 244 250 252 252 256 252 249 257 250 208 211 224 238 232 209 202 201 199 199 198 200 201 200 201 200 200 202 203 203 204 206 208 210 210 209 212 215 216 217 219 219 220 221 223 225 225 226 226 225 222 221 221 218 214 211 207 206 205 204 204 205 206 206 205 204 204 203 202 200 200 199 198 197 196 194 193 193
30 295 181 324 260 223 189 190 214 229 227 237 250 256 250 232 220 231 243 241 235 236 238 240 247 249 252 257 248 222 217 222 226 213 198 201 200 198 195 193 195 199 201 202 201 202 204 205 205 206 207 207 209 210 207 209 215 217 217 218 219 220 222 224 226 225 226 226 224 222 222 222 220 216 212 207 205 205 205 204 204 204 203 202 201 200 198 197 196 196 196 195 194 193 193 192 191
176 196 190 193 203 274 273 229 157 246 236 233 251 264 263 250 178 192 228 238 228 224 231 237 243 248 254 270 276 257 234 228 219 210 220 209 196 191 187 189 195 200 204 204 204 206 207 207 207 207 207 207 207 208 207 209 214 216 217 218 219 221 222 224 225 224 225 225 223 222 223 224 221 218 214 209 206 205 205 205 203 202 201 200 199 198 196 196 195 194 194 194 193 192 194 194 194
188 195 195 199 187 164 218 221 171 247 258 230 231 265 268 258 156 194 220 228 226 221 223 231 242 248 250 293 275 254 248 242 233 244 248 242 220 198 183 184 192 198 203 205 206 208 208 208 208 207 208 208 207 207 211 213 214 216 218 219 220 221 223 223 223 222 223 222 221 222 225 225 223 220 217 213 209 206 205 204 202 201 200 199 199 198 197 196 195 195 194 194 195 196 197 196 195
Height
817 817 816 817 816 816 816 817 831 835 835 847 852 853 853 853 854 852 851 852 851 851 850 852 851 850 852 852 850 849 851 850 851 856 858 856 856 858 860 861 862 863 865 866 866 867 867 867 867 868 869 869 870 870 870 870 871 871 871 871 871 871 871 871 872 872 872 872 872 871 871 870 870 869 868 867 866 866 865 865 865 864 864 864 864 864 865 865 866 866 866 865 865 865 864 864 864
817 817 816 817 815 817 820 820 836 842 840 851 852 850 853 853 854 850 848 849 850 851 852 852 852 852 853 852 850 850 852 852 852 854 855 856 857 859 860 861 862 863 865 866 867 868 868 868 868 869 869 869 870 870 871 871 871 871 872 871 872 872 872 872 873 873 873 873 873 872 872 871 871 870 869 868 867 866 866 866 866 866 866 866 866 866 866 866 867 867 867 867 866 866 866 866 866
816 817 816 816 815 816 821 824 837 846 847 851 849 850 853 853 851 847 848 849 851 853 853 853 853 853 853 852 851 851 852 853 854 854 855 857 857 859 860 861 863 864 865 866 867 868 868 869 869 869 869 870 870 870 871 871 871 872 872 872 872 872 873 873 874 874 874 874 873 873 873 872 872 870 870 869 868 867 867 867 867 867 867 867 867 867 867 868 868 868 868 868 868 868 867 867 867
816 816 816 816 817 818 824 833 839 844 848 850 848 850 851 849 848 849 851 852 853 854 854 854 854 855 854 853 852 852 852 853 854 854 855 857 857 858 860 860 863 864 865 866 867 868 868 869 869 869 869 870 871 871 871 871 872 872 872 873 873 873 874 874 875 875 874 874 874 874 873 873 872 871 871 870 869 868 868 868 869 869 869 869 869 869 869 869 869 869 869 869 869 869 869 869 868
816 816 816 814 820 825 831 841 842 842 846 846 846 849 848 846 847 851 853 854 855 854 854 854 853 855 855 854 853 852 852 853 854 855 856 857 858 859 859 860 862 864 865 866 866 868 868 869 869 870 870 871 871 872 872 872 872 872 873 874 874 874 875 875 875 875 875 875 875 875 874 874 873 872 872 871 870 870 870 870 870 871 871 871 870 870 870 870 871 870 871 871 871 871 870 870 870
816 816 815 814 822 828 833 843 843 843 845 844 844 847 846 845 847 850 854 855 855 855 855 854 853 854 854 854 854 853 852 853 854 855 856 857 858 858 859 860 862 864 865 865 866 868 868 869 870 870 871 871 872 872 872 872 873 873 873 874 875 875 875 876 876 876 876 876 876 875 875 874 874 874 873 872 872 871 871 871 872 872 872 872 872 872 872 872 872 872 872 872 872 872 872 871 871
817 817 817 819 826 829 835 843 842 843 846 848 846 845 845 846 848 850 854 855 855 855 855 855 852 852 853 854 854 853 853 854 854 855 857 857 858 858 859 861 862 864 864 865 866 867 868 869 869 870 871 871 872 872 873 873 873 874 874 875 875 875 876 876 876 876 876 876 876 876 876 875 875 875 874 873 873 873 873 873 874 874 874 874 874 874 873 873 873 873 873 873 873 873 873 873 873
816 820 822 825 834 836 840 844 844 845 849 852 849 848 847 847 849 849 852 853 853 854 854 854 853 852 853 854 853 853 854 855 855 855 856 857 858 859 859 861 863 863 864 865 866 867 867 868 869 870 871 871 872 872 873 873 874 874 874 875 875 875 875 876 876 876 876 877 877 877 877 876 876 876 875 875 874 874 874 874 875 875 875 875 875 875 874 874 874 874 874 874 874 874 875 875 875
817 821 825 829 837 842 844 846 848 848 850 851 850 850 850 850 849 848 850 852 852 852 852 852 853 852 852 853 852 853 854 855 855 855 856 857 858 859 860 861 863 864 864 865 865 866 867 868 869 869 870 871 872 872 873 874 874 875 875 875 875 875 875 876 876 876 877 877 877 878 878 877 877 876 876 876 875 875 875 876 876 876 876 875 875 875 875 875 875 875 875 875 876 876 876 876 876
819 822 827 831 838 845 848 847 847 849 850 849 848 849 850 851 850 849 849 850 851 851 852 853 853 853 851 851 851 852 853 854 855 856 856 857 858 859 860 862 863 864 864 864 865 866 867 868 869 869 870 871 872 872 873 874 874 875 875 875 875 875 876 876 877 877 877 878 878 878 878 878 877 877 877 877 877 877 877 876 876 876 876 876 876 876 876 876 876 876 877 877 877 877 877 877 877
823 825 828 835 842 847 847 844 846 847 848 849 848 848 849 850 850 850 850 850 851 851 852 854 853 851 852 851 850 852 853 854 855 856 857 857 858 860 861 862 862 863 864 864 865 866 867 868 868 869 870 870 872 872 873 874 874 875 875 875 876 876 876 877 877 878 878 878 878 878 879 878 878 878 878 878 878 878 877 877 876 876 876 877 877 877 877 877 877 877 878 878 878 878 878 878 878
826 830 829 837 843 844 845 843 845 847 847 848 846 847 849 850 849 849 850 850 850 851 851 852 850 849 852 851 849 852 854 854 855 856 856 857 858 860 860 861 862 863 864 864 865 865 866 867 868 869 870 870 871 872 873 873 874 874 874 875 875 876 876 877 878 878 878 879 879 879 879 878 879 879 879 879 879 879 878 878 877 877 877 877 878 878 878 878 878 878 878 879 879 879 879 879 879
827 832 830 840 849 847 848 847 848 851 848 844 844 847 849 848 848 846 847 848 849 850 849 848 849 849 850 850 850 852 853 854 855 856 856 857 858 859 860 861 862 863 863 864 865 865 866 867 868 869 870 870 871 872 872 873 873 874 874 875 875 876 877 877 878 878 878 878 879 879 879 879 880 880 880 880 880 880 879 878 878 878 878 878 878 879 879 879 879 879 879 880 880 880 880 880 880
827 831 830 845 859 853 851 850 850 852 845 840 843 849 850 847 847 845 845 848 847 848 848 848 848 849 849 849 850 850 851 853 854 855 856 857 858 859 860 860 861 862 863 864 864 865 866 866 867 868 869 870 870 871 872 872 873 873 874 875 875 876 877 877 878 878 878 878 879 879 880 880 880 881 881 881 881 880 879 879 879 878 878 879 879 879 879 880 880 880 881 881 881 881 881 881 881
827 831 833 845 857 852 852 852 850 850 841 839 845 848 849 848 848 847 845 846 846 847 849 849 849 849 847 846 847 847 848 851 853 855 856 857 858 859 860 860 861 862 862 863 863 864 865 866 867 868 868 869 870 870 871 872 872 873 874 874 875 876 876 877 877 878 878 879 879 879 880 881 881 881 881 881 881 881 880 880 880 879 879 880 880 880 880 881 881 881 882 882 882 882 882 882 882
827 829 835 843 852 853 851 852 853 852 841 839 847 848 847 848 849 848 846 846 846 848 848 848 849 848 846 845 847 848 849 851 853 855 857 858 858 859 860 860 861 861 862 862 863 864 864 865 866 867 868 868 869 870 871 871 872 873 874 874 875 875 876 877 877 878 878 879 880 880 880 881 882 882 882 882 882 881 881 881 881 881 881 881 881 881 882 882 882 882 883 883 883 883 883 883 883
827 828 837 842 849 851 847 849 850 846 840 840 848 847 844 846 849 848 848 848 846 848 848 846 848 848 846 847 849 849 850 851 853 855 856 857 858 859 859 860 860 860 861 861 862 863 864 864 865 866 867 868 868 869 870 871 871 872 873 874 874 875 875 876 877 878 878 879 880 880 881 881 882 882 882 882 882 882 882 882 882 882 882 882 882 882 883 883 883 884 884 884 884 884 884 884 885
829 832 839 841 844 844 840 841 841 839 837 839 844 844 842 844 847 847 847 847 846 847 847 846 846 847 847 848 849 850 850 852 853 855 856 856 857 857 858 858 859 860 860 861 861 862 863 863 865 866 866 867 868 869 870 870 871 872 872 873 874 875 875 875 876 878 878 879 880 880 881 881 882 882 882 882 883 883 883 883 883 883 883 883 884 884 884 884 884 885 885 885 886 886 886 886 886
832 836 839 838 837 838 836 835 836 839 837 837 842 844 842 842 843 846 846 844 846 847 844 845 845 844 846 848 849 850 851 852 853 854 854 854 855 855 856 857 858 858 859 860 860 861 862 863 864 865 866 866 867 868 869 870 870 871 872 872 873 874 875 875 876 877 878 879 879 880 881 881 882 882 882 882 882 883 883 884 884 884 884 884 885 885 885 885 886 886 886 887 887 887 887 887 888
835 838 836 835 835 836 838 837 837 841 840 838 841 845 845 842 842 844 844 843 845 844 840 842 843 840 842 846 848 850 851 852 853 853 854 853 853 853 854 855 856 857 858 859 859 859 861 861 862 863 864 866 866 867 868 869 869 870 871 871 872 873 874 875 876 877 877 878 879 880 880 881 882 882 882 882 883 883 884 884 884 884 885 885 885 885 886 886 887 887 888 888 888 888 889 889 889
836 837 834 836 838 837 839 840 840 844 844 840 841 846 845 843 844 843 842 844 843 838 834 835 836 835 838 843 846 848 850 851 852 852 852 852 852 853 853 853 854 855 856 857 857 858 859 860 861 862 863 864 865 866 867 867 868 869 870 870 871 872 873 874 875 875 876 877 877 879 879 880 881 881 882 883 883 884 884 884 885 885 885 885 886 886 886 887 887 888 889 889 889 890 890 890 891
835 839 839 841 841 838 841 844 845 847 846 842 843 844 843 843 844 842 842 842 836 832 830 831 832 833 836 840 844 846 848 849 850 850 849 850 850 851 852 853 853 854 854 855 856 857 858 859 860 861 862 863 863 865 865 866 867 867 868 869 870 871 871 872 873 874 875 876 876 877 878 879 880 881 882 882 883 883 883 884 884 885 885 885 886 886 886 887 888 888 889 889 890 891 891 891 892
835 839 843 843 843 840 843 846 847 849 845 842 843 841 842 844 842 842 842 837 830 830 831 832 833 835 836 838 841 843 844 846 846 845 845 846 847 848 849 851 851 852 852 853 855 855 856 858 858 860 860 861 862 863 864 865 866 866 867 867 868 869 869 870 871 872 873 874 875 876 877 878 879 880 881 881 882 883 883 883 884 884 885 885 886 886 887 887 888 888 888 889 890 891 892 892 893
834 837 842 844 846 844 846 849 849 850 845 843 844 842 843 843 841 845 842 831 828 831 832 834 835 837 838 838 839 840 840 841 842 842 843 844 844 846 847 849 850 850 851 852 853 854 855 856 857 858 859 860 861 862 863 864 864 865 865 865 866 867 868 869 870 871 872 873 873 874 875 877 878 879 880 880 881 882 882 882 883 884 885 885 886 886 886 887 888 888 888 889 890 891 892 893 894
834 837 841 844 846 845 848 850 849 850 847 847 846 843 844 844 845 846 837 828 828 831 832 834 835 836 837 837 837 838 838 839 839 840 841 842 843 845 845 846 848 848 849 850 851 852 853 854 855 856 857 859 860 861 862 862 863 863 864 864 865 866 867 868 869 870 871 871 872 872 874 875 876 877 878 879 880 881 881 882 882 883 884 885 886 886 887 887 888 888 889 889 890 891 892 893 894
836 838 841 842 845 846 848 848 848 849 846 847 845 842 845 846 848 840 828 827 830 831 832 834 835 835 835 835 835 835 836 836 837 838 839 840 841 842 843 844 845 845 847 848 849 850 851 852 853 855 856 857 858 859 860 861 861 861 862 863 864 864 865 866 867 868 869 870 871 871 872 873 874 876 877 878 879 879 880 881 882 882 883 884 885 886 886 887 888 889 889 889 890 891 891 893 894
839 841 841 842 845 847 848 846 847 848 846 847 843 842 844 846 848 835 824 830 832 831 832 832 834 833 832 833 833 834 834 834 835 837 837 838 839 839 840 841 841 842 844 846 847 848 849 850 851 852 853 854 856 857 858 859 860 860 860 861 862 863 864 865 866 866 867 868 869 870 871 872 873 874 875 876 877 878 879 880 880 881 882 883 884 885 886 887 888 889 890 890 890 890 891 893 894
841 842 840 842 844 845 846 844 846 846 845 847 843 843 845 847 846 831 826 833 833 832 830 831 832 830 830 831 832 833 832 833 834 835 835 835 835 836 837 837 838 840 842 843 844 846 847 848 849 850 851 852 853 854 855 857 858 859 859 859 860 861 862 863 864 864 865 866 867 868 869 870 871 872 873 874 875 876 878 878 879 880 881 882 883 884 885 887 888 889 890 890 890 891 891 893 894
842 842 840 842 842 843 846 846 848 847 845 847 846 845 842 842 837 825 828 833 832 833 830 829 830 828 829 830 830 830 830 831 832 831 831 831 832 833 834 834 836 838 839 841 842 843 844 846 847 848 849 850 851 852 853 854 856 857 857 856 857 859 860 861 862 862 863 864 865 866 867 868 869 870 871 872 873 874 875 877 878 879 880 881 882 883 884 886 887 888 889 890 891 891 891 893 894
842 843 842 843 843 843 846 849 850 848 847 848 848 846 834 828 826 823 830 833 831 831 827 826 827 826 827 827 828 827 828 829 828 828 828 829 830 831 832 833 834 836 838 839 839 841 842 843 844 845 846 847 848 849 850 851 853 854 854 853 854 856 857 859 859 860 861 862 863 864 865 866 867 868 869 871 872 873 874 875 875 877 878 879 881 882 884 885 887 888 889 890 891 891 892 894 895
843 845 846 849 848 844 845 851 850 846 848 847 848 848 832 821 822 825 832 833 832 829 824 824 824 825 825 825 826 824 824 825 824 825 825 826 827 828 830 831 832 834 835 836 837 839 840 841 842 843 843 844 845 846 847 849 850 851 850 851 852 854 855 856 857 857 859 860 861 862 863 864 865 867 868 869 870 871 872 873 873 874 876 877 879 881 882 883 886 888 888 889 890 891 892 894 896
847 848 849 855 852 844 844 851 852 848 848 847 847 846 832 821 821 827 833 833 833 830 823 823 822 823 823 822 823 821 820 821 821 822 822 823 824 825 827 828 829 831 833 834 835 836 837 838 839 840 841 841 842 843 844 846 847 848 848 849 851 852 853 854 855 855 856 858 858 860 861 862 863 864 866 867 868 869 870 871 871 872 874 875 877 879 880 882 884 886 888 888 889 890 891 894 895
849 849 849 855 854 846 844 850 854 852 850 847 846 844 832 823 823 828 834 833 832 830 823 822 821 820 821 820 820 818 817 817 817 817 817 819 820 821 823 825 827 828 830 831 832 834 835 835 836 837 838 839 840 840 841 843 844 845 846 848 849 850 851 852 853 854 855 856 856 858 859 860 861 862 863 865 866 867 868 869 871 872 873 875 876 877 878 880 883 885 887 888 888 889 890 893 895
849 852 851 855 857 851 845 846 853 855 851 847 845 845 834 823 822 825 828 830 830 828 822 819 817 817 817 817 817 815 815 814 812 811 813 815 816 818 820 822 824 826 828 829 830 831 832 833 834 835 836 837 838 838 839 840 842 843 844 846 847 848 849 850 851 852 853 854 855 856 857 858 859 860 861 863 864 865 866 868 870 871 873 875 877 877 877 879 882 884 886 888 888 889 890 893 895
844 850 849 853 858 856 851 846 851 854 851 847 845 844 835 824 822 820 820 824 827 824 820 817 815 815 814 814 813 812 812 810 806 806 810 812 813 815 817 818 821 822 824 826 828 829 830 831 831 832 833 834 835 836 837 839 840 842 843 844 845 846 847 848 849 850 851 852 853 854 855 856 857 859 860 861 863 864 865 867 868 870 872 874 876 877 877 877 881 883 885 886 888 889 890 892 894
840 846 846 848 849 850 851 848 853 856 851 846 842 837 830 824 822 819 815 820 823 821 818 816 814 813 811 810 809 808 808 805 802 804 808 810 811 812 813 815 817 819 821 823 824 826 827 828 828 829 830 832 833 834 835 837 839 840 841 842 843 844 845 846 847 848 849 849 851 852 853 854 855 857 858 859 861 862 864 866 867 869 870 871 873 876 876 876 879 882 884 885 887 889 891 892 894
844 848 849 851 850 845 845 849 856 859 850 840 837 835 828 823 821 817 814 816 819 818 816 814 811 810 808 806 804 803 802 800 799 803 805 807 808 809 811 812 814 816 817 819 820 821 823 824 825 826 827 829 830 832 833 834 836 837 838 840 840 841 843 844 845 846 847 848 849 850 851 852 853 855 856 857 859 861 862 864 865 866 868 869 872 873 874 875 878 880 883 885 886 888 891 893 894
846 848 850 852 853 846 846 853 856 858 853 839 837 840 829 821 818 813 812 813 812 810 809 808 805 804 802 800 800 799 797 796 797 800 801 803 805 806 808 809 810 812 812 814 816 817 819 821 822 823 824 826 828 829 831 832 833 835 836 837 838 839 841 842 844 844 846 847 848 849 850 850 852 853 855 856 857 859 860 861 863 864 866 868 871 872 873 874 876 878 880 883 886 887 889 892 893
848 851 853 850 849 846 848 857 858 857 853 840 839 844 829 817 814 809 808 808 803 800 801 801 801 800 798 795 795 795 795 794 794 795 797 800 802 803 805 805 806 808 809 811 813 815 816 817 819 821 821 823 825 827 828 830 831 833 834 835 837 838 839 840 842 843 844 846 847 848 848 849 850 852 853 854 855 857 858 860 861 863 864 865 868 870 871 873 875 876 878 880 884 887 889 891 892
849 851 851 848 850 849 845 852 859 858 855 848 847 848 832 815 810 803 799 799 798 797 798 799 799 797 793 792 792 792 792 791 790 791 793 796 799 800 801 802 803 805 807 808 810 812 813 814 815 817 818 819 822 824 826 828 829 832 833 834 836 837 838 839 841 841 842 844 845 846 847 848 849 850 852 852 853 855 857 858 859 861 863 864 865 867 869 872 873 875 877 878 880 884 887 889 890
851 852 848 844 847 850 846 850 857 855 856 858 853 843 826 813 811 802 794 797 800 798 799 798 796 794 792 791 790 789 789 788 787 787 789 792 794 796 797 798 800 802 803 804 805 807 808 810 812 813 815 816 819 821 823 825 827 829 830 832 834 835 836 837 837 838 839 841 842 844 845 846 848 849 850 851 852 854 856 857 858 860 862 863 864 865 867 870 872 873 875 876 878 880 883 886 888
850 850 846 842 842 848 853 854 854 849 850 858 857 842 820 810 812 805 795 796 795 794 796 793 789 789 789 789 786 785 785 784 785 785 787 789 790 792 794 796 798 798 799 801 802 804 806 808 809 811 812 814 816 819 820 822 824 826 827 828 830 831 832 833 833 835 836 839 841 842 844 845 847 848 849 851 851 854 855 856 857 858 860 862 863 865 866 868 870 872 873 874 877 878 879 882 885
847 849 848 847 847 852 856 855 853 847 845 855 859 849 832 817 807 797 793 793 789 788 790 786 784 784 783 783 781 781 781 781 783 784 785 786 787 789 791 792 794 794 796 799 800 803 804 806 807 808 810 811 814 816 818 820 822 823 824 825 827 827 829 830 831 834 835 838 840 841 843 844 845 847 848 850 850 852 855 856 857 858 859 861 862 864 865 867 868 870 872 873 875 877 878 880 881
846 853 856 852 852 855 856 856 854 851 850 854 856 854 848 831 807 795 795 795 792 788 784 780 779 779 778 778 777 777 778 778 780 782 782 783 784 786 787 789 791 792 794 797 798 800 802 804 805 806 808 810 812 814 816 818 819 821 823 824 826 827 828 829 831 833 835 836 838 840 841 842 844 845 846 848 849 851 853 854 856 857 858 859 861 862 864 865 867 869 871 872 874 875 876 878 879
850 861 862 856 856 856 856 856 854 859 857 849 851 856 848 824 801 800 804 800 795 785 776 773 771 772 774 774 775 775 776 777 779 780 780 781 782 783 785 786 788 790 792 794 795 798 800 802 804 805 806 808 810 812 814 816 818 820 822 823 824 826 827 829 830 831 833 835 836 838 839 841 842 843 845 846 847 848 850 852 854 855 856 858 859 861 862 864 865 867 869 870 872 873 875 876 877
856 864 860 858 861 860 860 858 854 861 859 846 848 852 844 816 788 795 808 802 793 779 769 769 768 769 772 773 775 775 777 778 779 780 780 780 781 782 783 785 786 788 790 792 794 796 798 800 802 803 805 806 808 811 812 814 816 818 820 821 822 824 825 827 828 829 831 833 834 835 837 839 840 842 843 844 845 846 848 850 851 853 855 856 858 859 860 862 863 865 867 868 870 872 873 875 875
856 857 854 857 861 859 860 859 855 861 854 842 843 844 844 825 784 778 793 791 783 774 766 767 767 768 770 772 775 775 776 778 778 779 779 780 781 781 782 783 784 786 787 790 792 793 796 798 800 802 803 804 806 809 810 812 814 816 817 819 820 822 823 825 826 827 829 830 832 833 835 837 839 840 841 842 844 845 846 848 850 852 853 855 856 857 859 861 862 864 865 867 869 870 872 873 874
854 848 848 853 856 858 861 862 864 864 850 844 850 848 850 833 789 773 783 782 780 777 771 767 765 767 768 771 775 775 776 777 777 778 778 779 780 780 782 782 783 784 785 787 789 791 794 796 798 800 801 803 804 807 808 810 812 814 815 818 819 820 821 823 824 825 827 828 830 832 833 835 837 838 840 841 842 843 845 846 848 850 852 853 855 856 857 859 861 862 864 866 867 869 870 872 873
852 845 848 851 854 860 861 860 865 860 849 856 864 858 852 826 785 776 780 776 775 775 772 769 767 767 768 770 774 775 776 777 776 777 777 778 779 779 780 780 781 782 783 785 787 789 792 794 795 797 799 801 802 804 806 808 810 812 813 815 817 818 819 821 822 823 825 826 827 829 831 832 834 835 837 839 840 842 843 845 847 849 850 852 853 855 856 857 859 861 862 864 866 867 869 870 871
848 840 842 847 853 863 861 860 865 856 851 864 868 860 848 819 785 776 775 768 767 769 769 768 768 768 768 769 772 773 774 775 775 776 776 776 776 777 778 778 779 780 781 783 785 787 789 791 793 794 796 800 800 802 804 806 807 809 811 812 813 815 816 818 819 820 822 823 825 826 827 829 830 832 834 836 838 840 842 844 846 847 849 851 852 853 855 856 858 860 861 863 865 866 868 869 870
842 833 835 838 839 845 846 847 849 845 850 868 872 857 834 809 786 775 773 770 770 772 771 771 770 769 769 771 772 772 772 772 773 774 774 773 774 775 776 777 778 779 780 782 783 785 786 788 790 791 794 797 798 799 801 803 804 806 807 809 810 811 813 815 816 818 819 821 822 823 825 826 827 829 831 833 835 838 840 842 844 846 848 849 851 852 854 856 857 859 861 862 864 865 867 868 869
843 838 839 838 826 824 840 852 850 848 854 860 862 845 812 791 778 770 772 771 767 770 773 773 771 768 771 770 766 767 768 768 769 770 770 770 772 773 775 776 777 778 780 781 782 784 785 786 788 790 792 795 796 797 798 800 802 803 804 806 807 809 810 812 813 815 817 819 820 821 822 824 826 827 828 830 833 835 838 840 842 844 846 848 849 851 853 854 856 858 859 861 863 864 866 867 868
840 843 839 834 826 823 840 861 866 864 854 838 837 829 803 789 778 764 766 765 761 765 767 766 765 765 769 765 759 763 765 765 765 765 765 767 769 771 772 773 775 775 777 779 780 782 784 785 787 789 791 793 795 795 796 798 799 801 802 803 805 807 808 810 811 813 815 817 818 819 821 823 824 826 827 828 830 832 835 838 840 842 844 846 848 849 851 853 855 857 858 860 862 863 865 866 867
835 839 830 828 833 830 831 844 854 859 850 831 825 820 805 798 785 766 765 769 765 763 761 760 760 761 762 758 755 760 762 763 763 762 763 765 766 769 769 770 771 773 775 776 778 780 782 784 785 786 788 789 792 792 793 796 797 798 800 801 803 805 807 809 810 812 814 815 817 818 819 821 822 824 826 827 829 831 833 836 838 840 842 844 846 848 850 851 853 855 857 859 861 862 864 865 866
833 831 825 827 834 833 832 838 840 842 843 832 821 816 808 800 784 768 767 769 764 761 759 758 757 757 756 753 752 756 759 761 760 759 762 763 764 765 766 768 769 770 773 774 777 778 780 781 782 783 785 786 789 790 791 793 795 796 798 800 801 803 805 807 808 810 812 813 815 816 817 819 821 823 824 825 827 829 831 834 836 838 840 842 844 846 848 850 852 854 856 858 860 862 863 864 866
836 832 829 830 829 825 827 830 826 824 830 827 817 810 797 780 770 767 763 759 758 757 755 754 755 754 752 750 750 752 756 757 755 756 759 760 761 763 764 766 767 769 771 773 775 776 777 779 780 781 783 784 787 788 789 790 792 794 796 798 799 801 803 804 806 808 809 810 812 814 815 817 819 820 822 823 825 827 829 831 833 836 838 840 842 845 847 849 851 853 855 857 859 861 863 864 866
830 829 828 831 830 828 828 825 823 821 821 823 822 812 786 760 756 760 756 752 752 753 752 752 752 750 749 750 752 754 755 754 753 755 757 759 760 761 762 764 765 767 769 771 772 774 775 776 777 778 781 782 784 785 786 787 790 792 794 795 797 799 800 802 804 805 807 808 810 811 813 815 816 818 819 821 823 825 827 829 831 833 836 838 841 843 846 848 850 852 854 857 859 861 862 864 866
814 815 815 815 817 825 829 826 829 830 823 819 822 815 783 753 750 753 750 749 748 749 751 751 749 748 748 752 757 759 756 753 754 755 757 759 760 760 760 760 762 764 766 768 770 772 773 774 775 777 778 780 781 782 783 784 787 789 790 792 794 796 798 799 801 803 804 806 807 809 811 813 814 816 818 820 822 824 825 827 830 832 834 837 839 842 844 847 849 851 854 856 858 860 862 864 865